DW5056 Weather Reports


time (UTC)temp
C
wind
direction
speed
KPH
gust
KPH
rain 1hr
cm
rain 24hr
cm
rain mn
cm
humidity
%
barometer
mb
20260505041319 11 37 6.4 11.3 0.00 0.00 0.00 89 1011.1
20260505040835 11 21 6.4 11.3 0.00 0.00 0.00 89 1011.0
20260505040345 11 319 3.2 11.3 0.00 0.00 0.00 89 1011.1
20260505035816 11 54 4.8 14.5 0.00 0.00 0.00 89 1011.1
20260505035331 11 354 3.2 17.7 0.00 0.00 0.00 89 1011.1
20260505034823 11 316 6.4 14.5 0.00 0.00 0.00 89 1011.1
20260505034317 11 49 4.8 16.1 0.00 0.00 0.00 89 1011.2
20260505033832 11 319 8.0 16.1 0.00 0.00 0.00 89 1011.2
20260505033326 11 51 8.0 17.7 0.00 0.00 0.00 89 1011.2
20260505032827 11 25 4.8 16.1 0.00 0.00 0.00 89 1011.3
20260505032313 11 325 6.4 16.1 0.00 0.00 0.00 89 1011.3
20260505031835 11 8 4.8 16.1 0.00 0.00 0.00 89 1011.3
20260505031315 11 332 6.4 14.5 0.00 0.00 0.00 88 1011.2
20260505030823 11 328 6.4 16.1 0.00 0.00 0.00 88 1011.3
20260505030324 11 359 4.8 16.1 0.00 0.00 0.00 88 1011.3
20260505025839 12 5 11.3 16.1 0.00 0.00 0.00 88 1011.3
20260505025345 12 55 4.8 22.5 0.00 0.00 0.00 88 1011.3
20260505024827 12 328 8.0 14.5 0.00 0.00 0.00 88 1011.3
20260505024342 12 25 8.0 17.7 0.00 0.00 0.00 88 1011.4
20260505023814 12 27 8.0 17.7 0.00 0.00 0.00 88 1011.4
20260505023337 12 221 8.0 19.3 0.00 0.00 0.00 88 1011.3
20260505022830 12 359 9.7 19.3 0.00 0.00 0.00 89 1011.4
20260505022318 12 30 9.7 20.9 0.00 0.00 0.00 89 1011.4
20260505021819 12 19 6.4 14.5 0.00 0.00 0.00 89 1011.4
20260505021340 12 333 6.4 16.1 0.00 0.00 0.00 89 1011.4
20260505020817 12 4 8.0 19.3 0.00 0.00 0.00 89 1011.4
20260505020320 12 25 4.8 19.3 0.00 0.00 0.00 90 1011.4
20260505015816 12 67 6.4 16.1 0.00 0.00 0.00 90 1011.4
20260505015330 12 91 8.0 16.1 0.00 0.00 0.00 90 1011.4
20260505014849 12 34 8.0 24.1 0.00 0.00 0.00 90 1011.3
20260505014323 12 283 8.0 17.7 0.00 0.00 0.00 90 1011.3
20260505013813 12 13 8.0 19.3 0.00 0.00 0.00 90 1011.4
20260505013323 12 13 8.0 16.1 0.00 0.00 0.00 90 1011.3
20260505012820 12 87 6.4 14.5 0.00 0.00 0.00 90 1011.3
20260505012334 12 16 3.2 14.5 0.00 0.00 0.00 90 1011.4
20260505011825 12 27 4.8 19.3 0.00 0.00 0.00 90 1011.4
20260505011329 12 351 9.7 19.3 0.00 0.00 0.00 89 1011.4
20260505010830 12 39 6.4 17.7 0.00 0.00 0.00 89 1011.4
20260505010331 12 22 9.7 17.7 0.00 0.00 0.00 89 1011.6
20260505005836 12 25 8.0 17.7 0.00 0.00 0.00 89 1011.7
20260505005318 12 41 6.4 22.5 0.00 0.00 0.00 89 1011.6
20260505004837 12 340 9.7 22.5 0.00 0.00 0.00 88 1011.6
20260505004332 12 349 8.0 17.7 0.00 0.00 0.00 88 1011.7
20260505003844 12 335 9.7 17.7 0.00 0.00 0.00 88 1011.7
20260505003318 13 22 8.0 16.1 0.00 0.00 0.00 88 1011.7
20260505002833 13 319 8.0 16.1 0.00 0.00 0.00 88 1011.7
20260505002346 13 19 6.4 17.7 0.00 0.00 0.00 88 1011.7
20260505001846 13 330 8.0 17.7 0.00 0.00 0.00 88 1011.7
20260505001319 13 358 6.4 16.1 0.00 0.00 0.00 88 1011.7
20260505000825 13 27 4.8 16.1 0.00 0.00 0.00 88 1011.7
20260505000320 13 321 4.8 19.3 0.00 0.00 0.00 88 1011.8
20260504235825 13 333 6.4 14.5 0.00 0.00 0.00 88 1011.8
20260504235338 13 25 8.0 16.1 0.00 0.00 0.00 88 1011.8
20260504234854 13 335 4.8 16.1 0.00 0.00 0.00 87 1011.9
20260504234327 13 35 4.8 20.9 0.00 0.00 0.00 87 1012.0
20260504233816 13 359 12.9 20.9 0.00 0.00 0.00 87 1012.0
20260504233318 13 42 6.4 16.1 0.00 0.00 0.00 87 1012.0
20260504232814 13 7 8.0 16.1 0.00 0.00 0.00 87 1012.0
20260504232325 13 354 6.4 14.5 0.00 0.00 0.00 87 1012.0
20260504231819 13 341 6.4 17.7 0.00 0.00 0.00 87 1012.1
20260504231322 13 354 6.4 16.1 0.00 0.00 0.00 87 1012.1
20260504230837 13 314 3.2 11.3 0.00 0.00 0.00 87 1012.2
20260504230312 14 44 4.8 11.3 0.00 0.00 0.00 87 1012.1
20260504225820 14 314 4.8 11.3 0.00 0.00 0.00 87 1012.1
20260504225335 14 330 6.4 11.3 0.00 0.00 0.00 87 1012.1
20260504224816 14 40 6.4 12.9 0.00 0.00 0.00 87 1012.1
20260504224358 14 58 6.4 14.5 0.00 0.00 0.00 87 1012.1
20260504223825 14 8 6.4 14.5 0.00 0.00 0.00 86 1012.2
20260504223326 14 354 8.0 16.1 0.00 0.00 0.00 86 1012.3
20260504222820 14 54 4.8 16.1 0.00 0.00 0.00 86 1012.3
20260504222334 14 44 8.0 14.5 0.00 0.00 0.00 86 1012.4
20260504221824 14 37 8.0 12.9 0.00 0.00 0.00 86 1012.4
20260504221327 14 341 8.0 14.5 0.00 0.00 0.00 86 1012.4
20260504220313 14 10 3.2 19.3 0.00 0.00 0.00 87 1012.5
20260504215824 14 16 9.7 19.3 0.00 0.00 0.00 87 1012.5
20260504215319 15 43 3.2 12.9 0.00 0.00 0.00 87 1012.5
20260504214815 15 24 6.4 12.9 0.00 0.00 0.00 87 1012.6
20260504214337 15 19 4.8 12.9 0.00 0.00 0.00 87 1012.6
20260504213849 15 42 6.4 16.1 0.00 0.00 0.00 87 1012.6
20260504213343 15 330 8.0 14.5 0.00 0.00 0.00 87 1012.5
20260504212824 15 321 6.4 14.5 0.00 0.00 0.00 87 1012.6
20260504212310 15 360 6.4 17.7 0.00 0.00 0.00 87 1012.6
20260504211812 15 348 8.0 17.7 0.00 0.00 0.00 87 1012.6
20260504211337 15 21 3.2 17.7 0.00 0.00 0.00 87 1012.7
20260504210822 15 263 6.4 12.9 0.00 0.00 0.00 87 1012.7
20260504210318 15 308 3.2 12.9 0.00 0.00 0.00 87 1012.7
20260504205831 15 347 4.8 12.9 0.00 0.00 0.00 87 1012.7
20260504205326 15 356 6.4 11.3 0.00 0.00 0.00 87 1012.7
20260504204821 15 356 4.8 11.3 0.00 0.00 0.00 87 1012.6
20260504204324 15 45 4.8 11.3 0.00 0.00 0.00 87 1012.7
20260504203812 15 319 4.8 11.3 0.00 0.00 0.00 86 1012.7
20260504203317 15 335 4.8 11.3 0.00 0.00 0.00 86 1012.7
20260504202823 15 360 4.8 11.3 0.00 0.00 0.00 86 1012.6
20260504202315 15 354 6.4 16.1 0.00 0.00 0.00 86 1012.6
20260504201836 15 31 6.4 16.1 0.00 0.00 0.00 86 1012.5
20260504201331 15 341 4.8 11.3 0.00 0.00 0.00 86 1012.5
20260504200816 15 27 4.8 11.3 0.00 0.00 0.00 86 1012.5
20260504200338 15 19 6.4 12.9 0.00 0.00 0.00 86 1012.5
20260504195849 15 41 6.4 12.9 0.00 0.00 0.00 87 1012.5
20260504195324 15 352 1.6 16.1 0.00 0.00 0.00 87 1012.4
20260504194818 15 351 8.0 16.1 0.00 0.00 0.00 87 1012.3
20260504194312 15 335 8.0 12.9 0.00 0.00 0.00 87 1012.3
20260504193827 15 46 1.6 11.3 0.00 0.00 0.00 87 1012.3
20260504193328 15 333 3.2 11.3 0.00 0.00 0.00 87 1012.3
20260504192824 15 325 4.8 9.7 0.00 0.00 0.00 87 1012.3
20260504192336 15 359 3.2 9.7 0.00 0.00 0.00 87 1012.3
20260504191811 15 293 4.8 11.3 0.00 0.00 0.00 87 1012.2
20260504191314 15 300 6.4 11.3 0.00 0.00 0.00 87 1012.2
20260504190817 15 294 4.8 12.9 0.00 0.00 0.00 87 1012.2
20260504190319 16 302 4.8 12.9 0.00 0.00 0.00 86 1012.2
20260504185832 16 264 8.0 12.9 0.00 0.00 0.00 86 1012.2
20260504185319 16 8 1.6 11.3 0.00 0.00 0.00 86 1012.1
20260504184814 16 330 4.8 11.3 0.00 0.00 0.00 86 1012.1
20260504184314 16 328 3.2 11.3 0.00 0.00 0.00 85 1012.1
20260504183847 16 294 4.8 14.5 0.00 0.00 0.00 85 1012.0
20260504183322 16 260 8.0 12.9 0.00 0.00 0.00 85 1012.0
20260504182823 16 339 8.0 12.9 0.00 0.00 0.00 85 1012.0
20260504182312 16 16 6.4 12.9 0.00 0.00 0.00 85 1012.0
20260504181830 16 13 6.4 11.3 0.00 0.00 0.00 86 1011.9
20260504181325 16 335 6.4 16.1 0.00 0.00 0.00 86 1012.0
20260504180839 16 310 4.8 16.1 0.00 0.00 0.00 86 1012.0
20260504180321 16 201 6.4 16.1 0.00 0.00 0.00 86 1012.0
20260504175823 16 347 4.8 19.3 0.00 0.20 0.00 86 1012.0
20260504175317 16 323 8.0 16.1 0.00 0.20 0.00 86 1012.0
20260504174812 16 319 6.4 20.9 0.00 0.20 0.00 86 1012.0
20260504174336 16 246 6.4 20.9 0.00 0.20 0.00 86 1012.1
20260504173827 16 335 9.7 20.9 0.00 0.20 0.00 85 1012.1
20260504173323 17 342 6.4 17.7 0.00 0.20 0.00 85 1012.1
20260504172846 17 290 8.0 19.3 0.00 0.20 0.00 84 1012.1
20260504172337 17 291 6.4 20.9 0.00 0.20 0.00 84 1012.2
20260504171828 17 358 8.0 17.7 0.00 0.20 0.00 84 1012.1
20260504171332 17 333 8.0 20.9 0.00 0.20 0.00 84 1012.1
20260504170815 17 328 9.7 20.9 0.00 0.20 0.00 84 1012.0
20260504170337 17 358 11.3 17.7 0.00 0.20 0.00 84 1012.0
20260504160324 18 1 3.2 11.3 0.00 4.70 0.00 79 1012.1
20260504150849 19 49 1.6 4.8 0.00 4.70 0.00 77 1012.2
20260504150351 19 124 0.0 4.8 0.00 4.70 0.00 79 1012.2
20260504141324 19 150 1.6 8.0 0.00 4.70 0.00 80 1012.6
20260504140857 19 27 4.8 8.0 0.00 4.70 0.00 78 1012.6
20260504140328 19 41 0.0 6.4 0.00 4.70 0.00 76 1012.7
20260504130817 18 201 1.6 4.8 0.00 4.70 0.00 80 1013.1
20260504130336 18 359 1.6 8.0 0.00 4.70 0.00 81 1013.0
20260504110325 16 198 0.0 4.8 0.00 4.90 0.00 92 1013.5
20260504100327 16 203 3.2 8.0 0.00 5.51 0.00 92 1013.6
20260504081820 15 234 1.6 1.6 0.00 7.11 0.00 92 1013.3
20260504081343 15 235 0.0 1.6 0.00 7.11 0.00 92 1013.3
20260504080811 15 235 0.0 1.6 0.00 7.11 0.00 92 1013.3
20260504080333 15 235 0.0 1.6 0.00 7.11 0.00 92 1013.4
20260504070314 14 201 0.0 3.2 0.00 7.29 0.00 92 1012.9
20260504050334 -17 0.0 0.0 0.00 7.29 0.00 1012.0
20260504045813 -17 0.0 0.0 0.00 7.29 0.00 1012.0